Flag for U.S.A. Weather past 2 weeks in Garland, Texas, U.S.A.

Now
61 °F

More clouds than sun.


Feels Like: 61 °F
Forecast: 54 / 74 °F
Wind: 6 mph from North

Location: Mesquite Metro Airport


UV Index: 7 (High)

Visibility: 10 mi


Pressure: 30.15 "Hg

Humidity: 72%

Dew point: 52 °F

Location of GarlandLocation

Historic Weather in Garland

°F

Garland temperature yesterday

Maximum temperature yesterday: 66 °F (at 5:55 PM)
Minimum temperature yesterday: 37 °F (at 4:55 AM)
Average temperature yesterday: 50 °F

Past Weeks' High & Low Weather Summary

 TemperatureHumidityPressure
High84 °F (Apr 9, 6:55 PM)94% (Apr 6, 12:55 PM)30.33 "Hg (Apr 6, 12:55 PM)
Low36 °F (Apr 15, 7:55 AM)20% (Apr 15, 3:55 PM)26.28 "Hg (Apr 3, 4:55 PM)
Average58 °F67%29.97 "Hg
* Reported Apr 2 7:55 PM — Apr 17 7:55 PM, Garland, Weather by CustomWeather, © 2014

Note: Actual official high and low records may vary slightly from our data, if they occured in-between our weather recording intervals... More about our weather records

Advertising

Historic Weather Conditions — Data for Previous 24 hours

 ConditionsComfort  
Time TempWeatherWind HumidityBarometerVisibility
7:55 PM
Apr 17
61 °FMore clouds than sun.6 mph72%30.15 "Hg10 mi
6:55 PM63 °FOvercast.6 mph68%30.14 "Hg10 mi
5:55 PM63 °FCloudy.3 mph68%30.13 "Hg10 mi
4:55 PM64 °FOvercast.No wind64%30.12 "Hg10 mi
3:55 PM64 °FOvercast.No wind64%30.12 "Hg10 mi
2:55 PM64 °FMore clouds than sun.7 mph64%30.14 "Hg10 mi
1:55 PM64 °FOvercast.5 mph64%30.15 "Hg10 mi
12:55 PM63 °FScattered clouds.7 mph68%30.16 "Hg10 mi
11:55 AM63 °FScattered clouds.8 mph68%30.17 "Hg10 mi
10:55 AM63 °FScattered clouds.8 mph68%30.16 "Hg10 mi
9:55 AM59 °FScattered clouds.6 mph72%30.15 "Hg10 mi
8:55 AM54 °FOvercast.8 mph82%30.14 "Hg10 mi
7:55 AM52 °FScattered clouds.6 mph82%30.12 "Hg10 mi
6:55 AM48 °FClear.6 mph87%30.10 "Hg10 mi
5:35 AM47 °FClear.5 mph82%30.09 "Hg10 mi
5:15 AM48 °FClear.6 mph81%30.08 "Hg10 mi
4:55 AM48 °FClear.6 mph80%30.08 "Hg10 mi
4:35 AM48 °FClear.6 mph79%30.08 "Hg10 mi
4:15 AM48 °FClear.6 mph78%30.08 "Hg10 mi
3:55 AM48 °FClear.7 mph76%30.08 "Hg10 mi
3:35 AM48 °FClear.6 mph75%30.08 "Hg10 mi
3:15 AM48 °FClear.6 mph74%30.07 "Hg10 mi
2:55 AM48 °FClear.6 mph74%30.07 "Hg10 mi
2:15 AM50 °FClear.6 mph70%30.07 "Hg10 mi
1:55 AM50 °FClear.7 mph68%30.07 "Hg10 mi
1:15 AM50 °FClear.7 mph65%30.06 "Hg10 mi
12:55 AM51 °FClear.7 mph63%30.05 "Hg10 mi
12:15 AM52 °FClear.9 mph60%30.04 "Hg10 mi
11:55 PM
Apr 16
53 °FClear.8 mph57%30.04 "Hg10 mi
11:35 PM53 °FClear.9 mph58%30.04 "Hg10 mi
11:15 PM53 °FClear.8 mph57%30.03 "Hg10 mi
10:55 PM54 °FClear.8 mph57%30.03 "Hg10 mi
10:15 PM54 °FClear.7 mph57%30.02 "Hg10 mi
9:55 PM55 °FClear.7 mph58%30.02 "Hg10 mi
Weather by CustomWeather, © 2014

See weather overview